Weather History for Gainesville, FL

Change the Weather History Date:

Wednesday, July 10, 2013

  Actual Average Record
Temperature  
Mean Temperature 82 °F 81 °F  
Max Temperature 92 °F 91 °F 99 °F (1914)
Min Temperature 71 °F 71 °F 65 °F (1936)
Degree Days  
Heating Degree Days 0 0  
Month to date heating degree days 0 0  
Since 1 June heating degree days 0 0  
Since 1 July heating degree days 0 0  
Cooling Degree Days 17 16  
Month to date cooling degree days 164 160  
Year to date cooling degree days 1184 1109  
Since 1 June cooling degree days 652 599  
Growing Degree Days 31 (Base 50)    
Moisture  
Dew Point 70 °F    
Average Humidity 69    
Maximum Humidity 94    
Minimum Humidity 44    
Precipitation  
Precipitation 1.40 in 0.20 in 2.07 in (1924)
Month to date precipitation 4.49 2.13  
Year to date precipitation 21.74 25.24  
Snow  
Snow 0.00 in 0.00 in 0.00 in ()
Month to date snowfall 0.0 0.0  
Since 1 June snowfall 0.0 0.0  
Since 1 July snowfall 0.0 0.0  
Snow Depth 0.00 in    
Sea Level Pressure  
Sea Level Pressure 30.06 in    
Wind  
Wind Speed 3 mph (East)    
Max Wind Speed 20 mph    
Max Gust Speed 31 mph    
Visibility 8 miles    
Events Fog , Rain , Thunderstorm    
T = Trace of Precipitation, MM = Missing Value Source: NWS Daily Summary

Daily Weather History Graph

Daily Weather History Graph

Search for Another Location

Airport:

Trip Planner

Search our weather history database for the weather conditions in past years. The results will help you decide how hot, cold, wet, or windy it might be!

Date:

Astronomy

Jul. 10, 2013 Rise Set
Actual Time 6:36 AM EDT 8:32 PM EDT
Civil Twilight 6:09 AM EDT 8:59 PM EDT
Nautical Twilight 5:36 AM EDT 9:31 PM EDT
Astronomical Twilight 5:02 AM EDT 10:06 PM EDT
Moon 8:42 AM EDT (7/10) 9:57 PM EDT (7/10)
Length of Visible Light 14h 49m
Length of Day
13h 55m
Waxing Crescent, 5% of the Moon is Illuminated
Jul 10
Waxing Crescent
Jul 15
First Quarter
Jul 22
Full
Jul 29
Last Quarter
Aug 6
New

Hourly Weather History & Observations

Time (EDT) Temp. Heat Index Dew Point Humidity Pressure Visibility Wind Dir Wind Speed Gust Speed Precip Events Conditions
12:53 AM 73.9 °F - 70.0 °F 87% 30.11 in 10.0 mi Calm Calm - N/A   Clear
1:53 AM 73.9 °F - 70.0 °F 87% 30.10 in 10.0 mi Calm Calm - N/A   Clear
2:53 AM 72.0 °F - 70.0 °F 93% 30.09 in 10.0 mi Calm Calm - N/A   Clear
3:53 AM 72.0 °F - 70.0 °F 93% 30.09 in 10.0 mi Calm Calm - N/A   Clear
4:53 AM 71.1 °F - 69.1 °F 93% 30.09 in 10.0 mi Calm Calm - N/A   Scattered Clouds
5:53 AM 73.0 °F - 70.0 °F 90% 30.09 in 10.0 mi Calm Calm - N/A   Mostly Cloudy
6:53 AM 73.0 °F - 70.0 °F 90% 30.09 in 9.0 mi Calm Calm - N/A   Clear
7:07 AM 73.4 °F - 69.8 °F 88% 30.09 in 8.0 mi Calm Calm - N/A   Scattered Clouds
7:16 AM 73.4 °F - 71.6 °F 94% 30.09 in 10.0 mi Calm Calm - N/A   Mostly Cloudy
7:53 AM 75.0 °F - 73.0 °F 94% 30.09 in 3.0 mi South 3.5 mph - N/A   Overcast
7:57 AM 75.2 °F - 73.4 °F 94% 30.10 in 1.8 mi South 3.5 mph - N/A   Overcast
8:09 AM 75.2 °F - 73.4 °F 94% 30.11 in 3.0 mi South 3.5 mph - N/A   Overcast
8:32 AM 77.0 °F - 73.4 °F 89% 30.10 in 10.0 mi Calm Calm - N/A   Scattered Clouds
8:53 AM 79.0 °F - 73.0 °F 82% 30.10 in 10.0 mi SE 4.6 mph - N/A   Clear
9:53 AM 82.0 °F 87.4 °F 73.0 °F 74% 30.11 in 10.0 mi Variable 3.5 mph - N/A   Clear
10:53 AM 84.9 °F 90.1 °F 71.1 °F 63% 30.10 in 10.0 mi Calm Calm - N/A   Clear
11:53 AM 86.0 °F 88.2 °F 66.0 °F 51% 30.10 in 10.0 mi Calm Calm - N/A   Clear
12:53 PM 89.1 °F 92.9 °F 68.0 °F 50% 30.09 in 10.0 mi South 4.6 mph - N/A   Scattered Clouds
1:53 PM 90.0 °F 91.7 °F 64.9 °F 43% 30.05 in 10.0 mi SE 5.8 mph - N/A   Partly Cloudy
2:53 PM 90.0 °F 92.4 °F 66.0 °F 45% 30.03 in 10.0 mi Calm Calm - N/A   Partly Cloudy
3:53 PM 91.0 °F 94.3 °F 66.9 °F 45% 30.00 in 10.0 mi East 4.6 mph - N/A   Clear
4:53 PM 91.0 °F 94.3 °F 66.9 °F 45% 29.99 in 10.0 mi Calm Calm - N/A   Partly Cloudy
5:53 PM 91.9 °F 94.5 °F 66.0 °F 42% 29.98 in 10.0 mi NNW 4.6 mph - N/A   Partly Cloudy
6:53 PM 90.0 °F 92.8 °F 66.9 °F 46% 29.97 in 10.0 mi NNW 6.9 mph - N/A   Partly Cloudy
7:53 PM 82.9 °F 87.5 °F 71.1 °F 67% 29.98 in 10.0 mi East 3.5 mph - N/A   Mostly Cloudy
8:53 PM 80.1 °F 84.2 °F 73.0 °F 79% 29.99 in 10.0 mi Calm Calm - N/A   Partly Cloudy
9:53 PM 80.1 °F 84.2 °F 73.0 °F 79% 30.01 in 10.0 mi WNW 5.8 mph - N/A   Overcast
10:53 PM 79.0 °F - 72.0 °F 79% 30.03 in 10.0 mi North 8.1 mph - N/A   Overcast
11:23 PM 78.8 °F - 73.4 °F 83% 30.04 in 10.0 mi NE 6.9 mph - N/A Thunderstorm Thunderstorm
11:30 PM 77.0 °F - 73.4 °F 89% 30.04 in 10.0 mi ENE 8.1 mph - N/A Thunderstorm Thunderstorm
11:44 PM 75.2 °F - 71.6 °F 89% 30.06 in 1.5 mi NE 18.4 mph 31.1 mph 0.03 in Rain , Thunderstorm Heavy Thunderstorms and Rain
11:47 PM 75.2 °F - 71.6 °F 89% 30.06 in 0.8 mi ENE 17.3 mph 31.1 mph 0.21 in Rain , Thunderstorm Heavy Thunderstorms and Rain
11:53 PM 73.9 °F - 71.1 °F 91% 30.04 in 0.5 mi ENE 12.7 mph 31.1 mph 0.68 in Fog , Rain , Thunderstorm Heavy Thunderstorms and Rain